This is the latest recevied weather packets stored in our database for station/object KD5BIG-13. If no packets are shown the sender has not sent any weather packets the latest 10 day(s).
| Time | Temp. | Humidity | Pressure | Rain* | Wind** | Luminosity | Snow |
|---|---|---|---|---|---|---|---|
| 1778009627 | 25° C | 75% | 1014.5 hPa | 0 mm | - | 160 W/m² | - |
| 1778009324 | 25° C | 74% | 1014.6 hPa | 0 mm | - | 152 W/m² | - |
| 1778009023 | 25° C | 73% | 1014.5 hPa | 0 mm | - | 186 W/m² | - |
| 1778008720 | 25° C | 75% | 1014.5 hPa | 0 mm | - | 193 W/m² | - |
| 1778008418 | 25° C | 73% | 1014.9 hPa | 0 mm | - | 184 W/m² | - |
| 1778008115 | 25° C | 73% | 1014.8 hPa | 0 mm | - | 195 W/m² | - |
| 1778007810 | 25° C | 74% | 1014.8 hPa | 0 mm | - | 173 W/m² | - |
| 1778007506 | 25° C | 74% | 1014.8 hPa | 0 mm | - | 230 W/m² | - |
| 1778007202 | 25° C | 74% | 1015.1 hPa | 0 mm | - | 134 W/m² | - |
| 1778006899 | 25° C | 73% | 1014.9 hPa | 0 mm | - | 113 W/m² | - |
| 1778006596 | 25.56° C | 74% | 1014.7 hPa | 0 mm | - | 149 W/m² | - |
| 1778006293 | 25.56° C | 71% | 1014.9 hPa | 0 mm | - | 209 W/m² | - |
| 1778005990 | 25.56° C | 72% | 1015 hPa | 0 mm | - | 236 W/m² | - |
| 1778005687 | 25.56° C | 71% | 1015.2 hPa | 0 mm | - | 313 W/m² | - |
| 1778005383 | 25.56° C | 70% | 1014.9 hPa | 0 mm | - | 368 W/m² | - |
| 1778005080 | 25.56° C | 72% | 1015.2 hPa | 0 mm | - | 333 W/m² | - |
| 1778004777 | 25.56° C | 71% | 1015.1 hPa | 0 mm | - | 336 W/m² | - |
| 1778004474 | 25.56° C | 70% | 1015.1 hPa | 0 mm | - | 283 W/m² | - |
| 1778004170 | 25.56° C | 69% | 1015.1 hPa | 0 mm | - | 281 W/m² | - |
| 1778003867 | 25.56° C | 71% | 1015.2 hPa | 0 mm | - | 353 W/m² | - |
| 1778003563 | 25.56° C | 69% | 1015.2 hPa | 0 mm | - | 401 W/m² | - |
| 1778003260 | 25.56° C | 71% | 1015.3 hPa | 0 mm | - | 344 W/m² | - |
| 1778002957 | 25.56° C | 72% | 1015.2 hPa | 0 mm | - | 368 W/m² | - |
| 1778002653 | 25.56° C | 69% | 1015.3 hPa | 0 mm | - | 418 W/m² | - |
| 1778002350 | 25.56° C | 71% | 1015.4 hPa | 0 mm | - | 469 W/m² | - |
* Rain latest hour (hover to see other rain measurements)
** Current wind speed in m/s (hover to see current wind gust speed)